Hammond, LA

5:13 PM CDT on April 21, 2018 (GMT -0500)
Hammond Municipal

Weather History for KHDC - November, 2013

Change the Weather History Date:

Friday, November 8, 2013

  Actual Average (KMSY) Record (KMSY)
Temperature  
Mean Temperature 54 °F -  
Max Temperature 66 °F 72 °F 85 °F (1986)
Min Temperature 41 °F 53 °F 35 °F (1976)
Degree Days  
Heating Degree Days 12    
Growing Degree Days 4 (Base 50)    
Moisture  
Dew Point 37 °F    
Average Humidity 61    
Maximum Humidity 93    
Minimum Humidity 26    
Precipitation  
Precipitation 0.00 in - - ()
Sea Level Pressure  
Sea Level Pressure 30.29 in    
Wind  
Wind Speed 4 mph (NNE)    
Max Wind Speed 16 mph    
Max Gust Speed 24 mph    
Visibility 10 miles    
Events      
Averages and records for this station are not official NWS values.
T = Trace of Precipitation, MM = Missing Value Source: NWS Daily Summary

Daily Weather History Graph

Daily Weather History Graph

Search for Another Location

Airport or City:

Astronomy

Nov. 08, 2013 Rise Set
Actual Time 6:22 AM CST 5:08 PM CST
Civil Twilight 5:56 AM CST 5:33 PM CST
Nautical Twilight 5:28 AM CST 6:02 PM CST
Astronomical Twilight 4:59 AM CST 6:30 PM CST
Moon 11:17 AM CST (11/8) 10:28 PM CST (11/8)
Length of Visible Light 11h 36m
Length of Day
10h 46m
Waxing Crescent, 33% of the Moon is Illuminated
Nov 8
Waxing Crescent
Nov 9
First Quarter
Nov 17
Full
Nov 25
Last Quarter
Dec 2
New

Hourly Weather History & Observations

Time (CST) Temp. Windchill Dew Point Humidity Pressure Visibility Wind Dir Wind Speed Gust Speed Precip Events Conditions
12:15 AM 46.4 °F 42.9 °F 37.4 °F 71% 30.32 in 10.0 mi North 6.9 mph - N/A   Clear
12:35 AM 46.4 °F 43.5 °F 37.4 °F 71% 30.32 in 10.0 mi North 5.8 mph - N/A   Clear
12:55 AM 44.6 °F 42.2 °F 37.4 °F 76% 30.32 in 10.0 mi North 4.6 mph - N/A   Clear
1:15 AM 42.8 °F 41.1 °F 37.4 °F 81% 30.32 in 10.0 mi North 3.5 mph - N/A   Clear
1:35 AM 44.6 °F - 37.4 °F 76% 30.31 in 10.0 mi Calm Calm - N/A   Clear
1:55 AM 42.8 °F - 37.4 °F 81% 30.31 in 10.0 mi Calm Calm - N/A   Clear
2:15 AM 44.6 °F 41.4 °F 37.4 °F 76% 30.31 in 10.0 mi North 5.8 mph - N/A   Clear
2:35 AM 44.6 °F 41.4 °F 35.6 °F 71% 30.31 in 10.0 mi North 5.8 mph - N/A   Clear
2:55 AM 44.6 °F 41.4 °F 35.6 °F 71% 30.31 in 10.0 mi North 5.8 mph - N/A   Clear
3:15 AM 44.6 °F - 35.6 °F 71% 30.32 in 10.0 mi Calm Calm - N/A   Clear
3:35 AM 44.6 °F - 35.6 °F 71% 30.31 in 10.0 mi Calm Calm - N/A   Clear
3:55 AM 44.6 °F 42.2 °F 35.6 °F 71% 30.32 in 10.0 mi North 4.6 mph - N/A   Clear
4:15 AM 42.8 °F 41.1 °F 35.6 °F 76% 30.32 in 10.0 mi NNE 3.5 mph - N/A   Clear
4:35 AM 44.6 °F - 35.6 °F 71% 30.31 in 10.0 mi Calm Calm - N/A   Clear
4:55 AM 42.8 °F - 35.6 °F 76% 30.32 in 10.0 mi Calm Calm - N/A   Clear
5:15 AM 41.0 °F 39.0 °F 35.6 °F 81% 30.33 in 10.0 mi North 3.5 mph - N/A   Clear
5:35 AM 42.8 °F 40.1 °F 35.6 °F 76% 30.33 in 10.0 mi North 4.6 mph - N/A   Clear
5:55 AM 41.0 °F - 35.6 °F 81% 30.34 in 10.0 mi Calm Calm - N/A   Clear
6:15 AM 42.8 °F - 35.6 °F 76% 30.35 in 10.0 mi Calm Calm - N/A   Clear
6:35 AM 41.0 °F - 35.6 °F 81% 30.35 in 10.0 mi Calm Calm - N/A   Clear
6:55 AM 42.8 °F - 37.4 °F 81% 30.36 in 10.0 mi Calm Calm - N/A   Clear
7:15 AM 44.6 °F - 35.6 °F 71% 30.36 in 10.0 mi Calm Calm - N/A   Clear
7:35 AM 48.2 °F - 35.6 °F 62% 30.36 in 10.0 mi NNE 5.8 mph - N/A   Clear
7:55 AM 48.2 °F - 35.6 °F 62% 30.36 in 10.0 mi NNE 4.6 mph - N/A   Clear
8:15 AM 50.0 °F - 35.6 °F 58% 30.37 in 10.0 mi NNE 4.6 mph - N/A   Clear
8:35 AM 53.6 °F - 35.6 °F 51% 30.36 in 10.0 mi ENE 6.9 mph - N/A   Clear
8:55 AM 55.4 °F - 33.8 °F 44% 30.37 in 10.0 mi NE 8.1 mph - N/A   Clear
9:15 AM 55.4 °F - 32.0 °F 41% 30.36 in 10.0 mi NE 9.2 mph 16.1 mph N/A   Clear
9:35 AM 57.2 °F - 32.0 °F 38% 30.36 in 10.0 mi NE 6.9 mph - N/A   Clear
9:55 AM 59.0 °F - 30.2 °F 34% 30.36 in 10.0 mi NE 12.7 mph 19.6 mph N/A   Clear
10:15 AM 59.0 °F - 30.2 °F 34% 30.35 in 10.0 mi ENE 16.1 mph 24.2 mph N/A   Clear
10:35 AM 60.8 °F - 30.2 °F 31% 30.35 in 10.0 mi ENE 12.7 mph 20.7 mph N/A   Clear
10:55 AM 60.8 °F - 30.2 °F 31% 30.34 in 10.0 mi NNE 10.4 mph 18.4 mph N/A   Clear
11:15 AM 62.6 °F - 30.2 °F 30% 30.33 in 10.0 mi NNE 8.1 mph - N/A   Clear
11:35 AM 62.6 °F - 30.2 °F 30% 30.32 in 10.0 mi NE 8.1 mph - N/A   Clear
11:55 AM 62.6 °F - 30.2 °F 30% 30.30 in 10.0 mi East 6.9 mph - N/A   Clear
12:15 PM 64.4 °F - 30.2 °F 28% 30.29 in 10.0 mi NE 4.6 mph - N/A   Clear
12:35 PM 64.4 °F - 30.2 °F 28% 30.28 in 10.0 mi ENE 8.1 mph - N/A   Clear
12:55 PM 66.2 °F - 30.2 °F 26% 30.27 in 10.0 mi NNE 5.8 mph - N/A   Clear
1:15 PM 66.2 °F - 30.2 °F 26% 30.26 in 10.0 mi NE 6.9 mph - N/A   Clear
1:35 PM 66.2 °F - 32.0 °F 28% 30.25 in 10.0 mi NNE 4.6 mph - N/A   Clear
1:55 PM 66.2 °F - 32.0 °F 28% 30.25 in 10.0 mi NE 5.8 mph - N/A   Clear
2:15 PM 66.2 °F - 32.0 °F 28% 30.24 in 10.0 mi NE 5.8 mph - N/A   Clear
2:35 PM 66.2 °F - 32.0 °F 28% 30.24 in 10.0 mi NNE 8.1 mph - N/A   Clear
2:55 PM 64.4 °F - 32.0 °F 30% 30.24 in 10.0 mi NE 4.6 mph - N/A   Clear
3:15 PM 62.6 °F - 32.0 °F 32% 30.24 in 10.0 mi North 6.9 mph - N/A   Clear
3:35 PM 62.6 °F - 33.8 °F 34% 30.23 in 10.0 mi NNE 4.6 mph - N/A   Clear
3:55 PM 60.8 °F - 35.6 °F 39% 30.23 in 10.0 mi NNE 4.6 mph - N/A   Clear
4:15 PM 59.0 °F - 35.6 °F 42% 30.23 in 10.0 mi NNE 3.5 mph - N/A   Clear
4:35 PM 57.2 °F - 39.2 °F 51% 30.23 in 10.0 mi Calm Calm - N/A   Clear
4:55 PM 55.4 °F - 41.0 °F 58% 30.23 in 10.0 mi Calm Calm - N/A   Clear
5:15 PM 53.6 °F - 44.6 °F 72% 30.23 in 10.0 mi Calm Calm - N/A   Clear
5:35 PM 53.6 °F - 42.8 °F 67% 30.24 in 10.0 mi Calm Calm - N/A   Clear
5:55 PM 51.8 °F - 44.6 °F 76% 30.24 in 10.0 mi North 3.5 mph - N/A   Clear
6:15 PM 50.0 °F - 42.8 °F 76% 30.24 in 10.0 mi North 3.5 mph - N/A   Clear
6:35 PM 51.8 °F - 41.0 °F 67% 30.24 in 10.0 mi NNE 3.5 mph - N/A   Clear
6:55 PM 53.6 °F - 41.0 °F 62% 30.24 in 10.0 mi Calm Calm - N/A   Clear
7:15 PM 53.6 °F - 41.0 °F 62% 30.24 in 10.0 mi Calm Calm - N/A   Clear
7:35 PM 51.8 °F - 44.6 °F 76% 30.25 in 10.0 mi Calm Calm - N/A   Clear
7:55 PM 50.0 °F - 42.8 °F 76% 30.26 in 10.0 mi Calm Calm - N/A   Clear
8:15 PM 48.2 °F - 42.8 °F 82% 30.26 in 10.0 mi Calm Calm - N/A   Clear
8:35 PM 46.4 °F - 42.8 °F 87% 30.26 in 10.0 mi Calm Calm - N/A   Clear
8:55 PM 44.6 °F - 41.0 °F 87% 30.26 in 10.0 mi Calm Calm - N/A   Clear
9:15 PM 46.4 °F - 42.8 °F 87% 30.26 in 10.0 mi Calm Calm - N/A   Clear
9:35 PM 46.4 °F - 42.8 °F 87% 30.25 in 10.0 mi Calm Calm - N/A   Clear
9:55 PM 44.6 °F - 41.0 °F 87% 30.25 in 10.0 mi Calm Calm - N/A   Clear
10:15 PM 44.6 °F - 41.0 °F 87% 30.24 in 10.0 mi Calm Calm - N/A   Clear
10:35 PM 44.6 °F - 41.0 °F 87% 30.24 in 10.0 mi Calm Calm - N/A   Clear
10:55 PM 42.8 °F - 39.2 °F 87% 30.24 in 10.0 mi Calm Calm - N/A   Clear
11:15 PM 44.6 °F - 42.8 °F 93% 30.23 in 10.0 mi Calm Calm - N/A   Clear
11:35 PM 46.4 °F - 41.0 °F 81% 30.22 in 10.0 mi Calm Calm - N/A   Clear
11:55 PM 44.6 °F - 39.2 °F 81% 30.21 in 10.0 mi Calm Calm - N/A   Clear